Terug naar catalogus

STARLINK-35435

ActiefCommunicatieVLEO
NORAD 66464·PAYLOAD·🇺🇸 United States

Gelanceerd Nov 15, 2025 vanaf Cape Canaveral Space Force Station

Loading…

Volgende Passages (komende 24 uur)

TLE

VersSource: CelesTrak SupGP

Epoch: Sep 15, 2026, 03:02 UTC

1 66464C 25262J   26258.12687500  .00036109  00000+0  13073-2 0  2587
2 66464  43.0031 305.9240 0001872 272.8142  67.5098 15.27573453    14

Volg STARLINK-35435 in realtime met AllMySat

Download on the App Store